Torna al catalogo

FENGYUN 1C DEB

AttivoPO
NORAD 30867·DEBRIS·🇨🇳 China

Lanciato May 10, 1999 da Taiyuan Satellite Launch Center

Loading…

Prossimi Passaggi (prossime 24 ore)

TLE

AggiornatoSource: Space-Track

Epoca: Sep 14, 2026, 09:53 UTC

1 30867U 99025AXD 26257.41228301  .00002139  00000-0  82928-3 0  9999
2 30867  97.8621 142.7537 0048347 251.4708 164.4699 14.30232782  4769

Traccia FENGYUN 1C DEB in tempo reale con AllMySat

Download on the App Store